Miscellaneous Local Product
Issued by NWS North Platte, NE

Home | Current Version | Previous Version | Text Only | Print | Product List | Glossary On
Versions: 1 2 3 4 5 6 7 8 9 10 11 12 13 14 15 16 17 18 19 20 21 22 23 24 25 26 27 28 29 30 31 32 33 34 35 36 37 38 39 40 41 42 43 44 45 46 47 48 49 50
000
AXUS43 KLBF 281310
MISLBF


WESTERN AND NORTH CENTRAL NEBRASKA HOURLY WEATHER ROUNDUP
NATIONAL WEATHER SERVICE NORTH PLATTE NE
700 AM CST SUN DEC 28 2014

***STATIONS NOT REPORTING VARIABLES SUCH AS SKY/WEATHER OR
PRESSURE ARE PROVIDED BY THE NEBRASKA DEPARTMENT OF
ROADS...RAWS...AND APRS NETWORKS...AND ARE NOT UNDER
NATIONAL WEATHER SERVICE QUALITY CONTROL***

...OBSERVATIONS IN AND NEAR THE EASTERN PANHANDLE OF NEBRASKA...

CITY           SKY/WX    TMP DP  RH WIND       PRES   REMARKS
PINE RIDGE     CLEAR     -1  -6  79 W5        29.95S WCI -11
CHADRON        PTCLDY     4  -1  80 W8        29.96S WCI  -9
ALLIANCE       MOCLDY     2  -2  83 CALM      29.95S
SIDNEY         CLOUDY     5  -2  72 W6        29.97S WCI  -6
WHITECLAY        N/A      0  -7  73 SE7         N/A  WCI -13
CRESCENT LAKE    N/A      4  -1  77 CALM        N/A
LISCO            N/A     -1  -8  70 CALM        N/A
BIG SPRINGS      N/A      2  -1  86 W9          N/A  WCI -13
$$

...OBSERVATIONS IN NORTH CENTRAL NEBRASKA...

CITY           SKY/WX    TMP DP  RH WIND       PRES   REMARKS
VALENTINE      CLEAR      0  -5  79 SW6       30.02S WCI -12
THEDFORD       PTCLDY     5   2  85 CALM      30.02S
AINSWORTH      PTCLDY     6   1  79 W6        30.01F WCI  -5
O`NEILL        MOCLDY     7   4  86 W5        30.06R WCI  -1
ORD            PTCLDY     2  -1  88 NW3       30.06F
BROKEN BOW     PTCLDY     2  -2  83 CALM      30.04S
BROWNLEE         N/A      4  -2  74 W5          N/A  WCI  -5
SPRINGVIEW       N/A      0  -4  84 CALM        N/A
BREWSTER         N/A      6   4  91 W5          N/A  WCI  -2
ROSE             N/A     11  11  96 CALM        N/A
SARGENT          N/A      4   2  89 CALM        N/A
COMSTOCK         N/A     16   9  74 W9          N/A  WCI   5
CHAMBERS         N/A      4  -1  79 CALM        N/A
EWING            N/A      5   3  90 CALM        N/A
$$

...OBSERVATIONS IN SOUTHWEST NEBRASKA AND FAR NORTHEAST COLORADO...

CITY           SKY/WX    TMP DP  RH WIND       PRES   REMARKS
WRAY           FAIR       4   0  83 W8        30.01S WCI -10
HOLYOKE        FAIR       5   0  78 W8        30.01R WCI  -8
IMPERIAL       MOCLDY     2  -3  80 W7        30.03S WCI -11
OGALLALA       PTCLDY    -3  -6  85 W5        30.03S WCI -14
NORTH PLATTE   PTCLDY    -2  -6  83 NW8       30.06R WCI -17
MCCOOK         MOCLDY     3  -1  83 W6        30.07F WCI  -8
LEXINGTON      CLEAR      4   1  86 NW6       30.06F WCI  -7
PAXTON           N/A      5   1  83 W6          N/A  WCI  -6
BRADY            N/A      2  -2  84 CALM        N/A
GOTHENBURG       N/A      7   3  83 W3          N/A
CALLAWAY         N/A      7   3  82 CALM        N/A
$$

...NORTH PLATTE AREA...

CITY           SKY/WX    TMP DP  RH WIND       PRES   REMARKS
AIRPORT        PTCLDY    -2  -6  83 NW8       30.06R WCI -17
DOWNTOWN         N/A      3  -1  83 CALM        N/A
$$

...SOME WEATHER OBSERVATIONS FROM AROUND THE REGION...

CITY           SKY/WX    TMP DP  RH WIND       PRES   REMARKS
DENVER         MOCLDY    12   3  67 N3        29.91S
LARAMIE        MOCLDY    17   4  56 SW15G23   29.86F WCI   2
CHEYENNE       CLOUDY    21   4  47 W6        29.88F WCI  13
SCOTTSBLUFF    MOCLDY     6   2  83 E5        29.96F WCI  -3
RAPID CITY     MOCLDY     7   2  80 NW5       29.92F WCI  -2
PIERRE         PTCLDY     3   1  91 CALM      30.04R
WINNER         FAIR      10   3  73 S5        30.03S WCI   2
SIOUX FALLS    PTCLDY    -1  -5  82 CALM      30.09S
OMAHA          CLEAR     16  13  88 SE6       30.15S WCI   7
GRAND ISLAND   PTCLDY     8   3  80 W7        30.09S WCI  -3
KANSAS CITY    CLEAR     18  16  92 SW6       30.20R WCI  10
WICHITA        CLEAR     16  11  80 S5        30.23R WCI   9
HAYS           CLEAR     12   1  62 W5        30.14R WCI   4
LIBERAL        PTCLDY    14   7  73 S6        30.10F WCI   5
GOODLAND       PTCLDY    12   7  80 W9        30.01F WCI   0
$$



USA.gov is the U.S. government's official web portal to all federal, state and local government web resources and services.